This demonstration page uses our WeatherBlox Daily Observations layout. Learn more.

Left ArrowRight Arrow

31.84235, -102.49876

Hourly Observations for November 29, 2022

Temp ( °F °C ) Dew Point ( °F °C ) Humidity (%) Winds ( mph kmh ) Pressure ( in mb ) Visibility ( mi km ) Precip ( " mm )
12:53 am 00:53 Clear 51 10.6 40 4.4 65 65 SW 13 20 29.67 1005 10 16 0.00 0.00
1:53 am 01:53 Clear 50 10 41 5 71 71 S 12 19 29.65 1004 10 16 0.00 0.00
2:53 am 02:53 Clear 47 8.3 38 3.3 71 71 SW 8 13 29.65 1004 10 16 0.00 0.00
3:53 am 03:53 Clear 45 7.2 42 5.6 90 90 SSW 7 11 29.65 1004 10 16 0.00 0.00
4:53 am 04:53 Clear 44 6.7 40 4.4 85 85 SSW 7 11 29.67 1005 10 16 0.00 0.00
5:53 am 05:53 Clear 45 7.2 42 5.6 90 90 SW 7 11 29.67 1005 10 16 0.00 0.00
6:53 am 06:53 Clear 45 7.2 42 5.6 90 90 SSW 10 17 29.69 1005 10 16 0.00 0.00
7:53 am 07:53 Sunny 45 7.2 43 6.1 93 93 SSW 9 15 29.71 1006 9 14 0.00 0.00
8:53 am 08:53 Sunny 51 10.6 42 5.6 71 71 SW 8 13 29.72 1007 10 16 0.00 0.00
9:53 am 09:53 Sunny 60 15.6 34 1.1 37 37 WSW 16 26 29.72 1007 10 16 0.00 0.00
10:53 am 10:53 Sunny 66 18.9 31 -0.6 27 27 WSW 15 24 29.72 1006 10 16 0.00 0.00
11:53 am 11:53 Sunny 70 21.1 26 -3.3 19 19 W 28 44 29.71 1006 10 16 0.00 0.00
12:53 pm 12:53 Sunny 70 21.1 24 -4.4 18 18 W 29 46 29.70 1006 10 16 0.00 0.00
1:53 pm 13:53 Sunny 72 22.2 26 -3.3 18 18 W 28 44 29.70 1006 10 16 0.00 0.00
2:53 pm 14:53 Sunny 72 22.2 24 -4.4 16 16 W 28 44 29.71 1006 10 16 0.00 0.00
3:53 pm 15:53 Sunny 72 22.2 23 -5 16 16 W 26 43 29.72 1007 10 16 0.00 0.00
4:53 pm 16:53 Sunny 71 21.7 24 -4.4 17 17 W 20 31 29.75 1008 10 16 0.00 0.00
5:53 pm 17:53 Clear 64 17.8 28 -2.2 25 25 W 10 17 29.80 1009 10 16 0.00 0.00
6:53 pm 18:53 Clear 60 15.6 29 -1.7 30 30 W 7 11 29.85 1011 10 16 0.00 0.00
7:53 pm 19:53 Clear 58 14.4 29 -1.7 33 33 WNW 3 6 29.90 1013 10 16 0.00 0.00
8:53 pm 20:53 Clear 56 13.3 28 -2.2 34 34 WNW 5 7 29.93 1014 10 16 0.00 0.00
9:53 pm 21:53 Clear 53 11.7 29 -1.7 39 39 NW 8 13 29.95 1014 10 16 0.00 0.00
10:23 pm 22:23 Clear 46 7.8 34 1.1 63 63 NE 22 35 30.10 1019 9 14 0.00 0.00
10:53 pm 22:53 Clear 43 6.1 32 0 65 65 NE 24 39 30.05 1018 8 13 0.00 0.00
11:53 pm 23:53 Clear 39 3.9 30 -1.1 70 70 NE 17 28 30.11 1020 10 16 0.00 0.00

Powered by AerisWeather